{"data":{"norad_id":40967,"intl_designator":"2015-058D","name":"FOX-1A (AO-85)","alt_names":[],"object_type":"PAYLOAD","status":"ACTIVE","operator":null,"country":"US","launch_date":"2015-10-08","launch_site_code":"AFWTR","launch_vehicle":null,"mission":null,"orbit_class":"UNKNOWN","rcs_meters":null,"size_class":null,"mass_kg":null,"dimensions":null,"purposes":["comms","tech_demo"],"wikipedia_slug":null,"has_3d_model":false,"image_url":null,"decayed_at":null,"tle_current":{"epoch":"2026-09-20T04:21:04.694112Z","epoch_age_seconds":41834,"freshness":"FRESH","line1":"1 40967U 15058D   26263.18130433  .00001073  00000+0  10450-3 0  9990","line2":"2 40967  64.7756 343.6540 0138828  21.1010 339.5751 14.91402790127733","mean_motion":14.9140279,"eccentricity":0.0138828,"inclination_deg":64.7756,"raan_deg":343.654,"arg_perigee_deg":21.101,"mean_anomaly_deg":339.5751,"bstar":0.0001045,"rev_number":12773,"period_min":96.553393198359,"perigee_km":496.77390647235,"apogee_km":690.34727307092,"semimajor_km":6971.6975897716,"source":"CELESTRAK","updated_at":"2026-09-20T09:00:48.028743Z"}}}